Starlink 1707

operational
NORAD ID: 46359 Int'l Des: 2020-062 Owner: SPXS Country: US Constellation: starlink
LEOCIRCULAR

About Starlink 1707

Description loading...

Live Position

Loading 3D Globe...

Upcoming Passes

Altitude History

Altitude vs Time

uPlot chart will show altitude changes over time

Two-Line Element Set

1 46359U 20062AL 25277.78379441 .00099817 00000-0 35709-2 0 9993
2 46359 53.0384 296.3332 0006865 333.8526 26.2124 15.27974140281654
Epoch: Oct 4, 2025 • Age: 12 hours

Current Status

Altitude 489.1 km
Velocity 7.62 km/s
Sub-Earth Point 38.46°N, 31.98°W
Launch Date Sep 3, 2020
Age 5 years
Type internet

Technical Details

Classification Payload
Mass 260.00 kg
Dry Mass 248.00 kg
Total Mass 260.00 kg
Length 0.20 m
Diameter 2.80 m
Span 9.00 m
Shape Box + pan
Manufacturer SPXS
Bus Type Starlink
Phase Status In Orbit
Owner/State SPXS/US

Large Constellations

Loading constellations...